Weather History for KDYT - January, 2013

Change the Weather History Date:

Tuesday, January 29, 2013

  Actual Average Record
Temperature  
Mean Temperature 30 °F -  
Max Temperature 35 °F 21 °F 41 °F (1976)
Min Temperature 24 °F 1 °F -37 °F (1951)
Degree Days  
Heating Degree Days 34    
Moisture  
Dew Point 28 °F    
Average Humidity 84    
Maximum Humidity 93    
Minimum Humidity 69    
Precipitation  
Precipitation 0.00 in - - ()
Sea Level Pressure  
Sea Level Pressure 29.63 in    
Wind  
Wind Speed 8 mph (NNW)    
Max Wind Speed 20 mph    
Max Gust Speed 23 mph    
Visibility 8 miles    
Events      
Averages and records for this station are not official NWS values.
T = Trace of Precipitation, MM = Missing Value Source: NWS Daily Summary

Daily Weather History Graph

Daily Weather History Graph

Search for Another Location

Airport or City:

Trip Planner

Search our weather history database for the weather conditions in past years. The results will help you decide how hot, cold, wet, or windy it might be!

Date:

Astronomy

Jan. 29, 2013 Rise Set
Actual Time 7:35 AM CST 5:07 PM CST
Civil Twilight 7:02 AM CST 5:40 PM CST
Nautical Twilight 6:26 AM CST 6:16 PM CST
Astronomical Twilight 5:50 AM CST 6:52 PM CST
Moon 8:19 PM CST (1/29) 8:19 AM CST (1/29)
Length of Visible Light 10h 37m
Length of Day
9h 32m
Waning Gibbous, 93% of the Moon is Illuminated
Jan 29
Waning Gibbous
Feb 3
Last Quarter
Feb 10
New
Feb 17
First Quarter
Feb 25
Full

Hourly Weather History & Observations

Time (CST) Temp. Windchill Dew Point Humidity Pressure Visibility Wind Dir Wind Speed Gust Speed Precip Events Conditions
12:13 AM 33.8 °F 26.4 °F 30.2 °F 87% 29.69 in 10.0 mi ENE 9.2 mph - N/A   Overcast
12:34 AM 33.8 °F 25.8 °F 30.2 °F 87% 29.68 in 10.0 mi East 10.4 mph - N/A   Overcast
12:54 AM 32.0 °F 24.2 °F 30.2 °F 93% 29.67 in 10.0 mi ENE 9.2 mph - N/A   Overcast
1:13 AM 32.0 °F 23.6 °F 30.2 °F 93% 29.65 in 5.0 mi ENE 10.4 mph - N/A   Overcast
1:34 AM 32.0 °F 25.6 °F 30.2 °F 93% 29.66 in 4.0 mi ENE 6.9 mph - N/A   Overcast
1:54 AM 32.0 °F 25.6 °F 30.2 °F 93% 29.65 in 2.5 mi ENE 6.9 mph - N/A   Overcast
2:13 AM 32.0 °F 24.2 °F 30.2 °F 93% 29.63 in 4.0 mi ENE 9.2 mph - N/A   Overcast
2:34 AM 32.0 °F 26.4 °F 30.2 °F 93% 29.63 in 4.0 mi ENE 5.8 mph - N/A   Overcast
2:54 AM 32.0 °F 24.8 °F 30.2 °F 93% 29.60 in 4.0 mi ENE 8.1 mph - N/A   Overcast
3:13 AM 32.0 °F 24.8 °F 30.2 °F 93% 29.59 in 3.0 mi ENE 8.1 mph - N/A   Overcast
3:34 AM 32.0 °F 24.8 °F 30.2 °F 93% 29.58 in 3.0 mi East 8.1 mph - N/A   Overcast
4:13 AM 32.0 °F 25.6 °F 30.2 °F 93% 29.56 in 3.0 mi ENE 6.9 mph - N/A   Overcast
4:34 AM 32.0 °F - 30.2 °F 93% 29.57 in 4.0 mi Calm Calm - N/A   Overcast
5:13 AM 32.0 °F - 30.2 °F 93% 29.56 in 1.5 mi Calm Calm - N/A   Overcast
5:34 AM 32.0 °F - 30.2 °F 93% 29.54 in 2.0 mi Calm Calm - N/A   Overcast
5:53 AM 32.0 °F - 30.2 °F 93% 29.55 in 2.5 mi Calm Calm - N/A   Overcast
6:13 AM 32.0 °F - 30.2 °F 93% 29.54 in 3.0 mi Calm Calm - N/A   Overcast
6:34 AM 32.0 °F - 30.2 °F 93% 29.54 in 2.5 mi Calm Calm - N/A   Overcast
6:53 AM 32.0 °F 28.7 °F 30.2 °F 93% 29.55 in 2.5 mi WNW 3.5 mph - N/A   Overcast
7:13 AM 32.0 °F - 30.2 °F 93% 29.53 in 4.0 mi Calm Calm - N/A   Overcast
7:34 AM 32.0 °F - 30.2 °F 93% 29.54 in 4.0 mi Calm Calm - N/A   Overcast
7:53 AM 32.0 °F - 30.2 °F 93% 29.53 in 3.0 mi Calm Calm - N/A   Overcast
8:13 AM 32.0 °F - 30.2 °F 93% 29.54 in 5.0 mi Calm Calm - N/A   Overcast
8:34 AM 32.0 °F - 30.2 °F 93% 29.54 in 4.0 mi Calm Calm - N/A   Overcast
8:53 AM 32.0 °F 27.5 °F 30.2 °F 93% 29.56 in 5.0 mi WSW 4.6 mph - N/A   Overcast
9:14 AM 32.0 °F 26.4 °F 30.2 °F 93% 29.56 in 7.0 mi WSW 5.8 mph - N/A   Overcast
9:34 AM 32.0 °F 27.5 °F 30.2 °F 93% 29.55 in 10.0 mi West 4.6 mph - N/A   Overcast
9:53 AM 33.8 °F - 30.2 °F 87% 29.56 in 10.0 mi Calm Calm - N/A   Overcast
10:14 AM 33.8 °F 27.0 °F 30.2 °F 87% 29.56 in 10.0 mi West 8.1 mph - N/A   Overcast
10:34 AM 33.8 °F 26.4 °F 30.2 °F 87% 29.58 in 10.0 mi West 9.2 mph - N/A   Overcast
10:53 AM 33.8 °F 25.8 °F 30.2 °F 87% 29.58 in 10.0 mi NW 10.4 mph - N/A   Overcast
11:14 AM 32.0 °F 22.1 °F 30.2 °F 93% 29.57 in 10.0 mi NW 13.8 mph 18.4 mph N/A   Overcast
11:33 AM 32.0 °F 22.5 °F 30.2 °F 93% 29.59 in 10.0 mi NW 12.7 mph 16.1 mph N/A   Mostly Cloudy
11:53 AM 33.8 °F 27.0 °F 30.2 °F 87% 29.61 in 10.0 mi WNW 8.1 mph - N/A   Mostly Cloudy
12:13 PM 33.8 °F 26.4 °F 30.2 °F 87% 29.61 in 10.0 mi NW 9.2 mph - N/A   Overcast
12:34 PM 33.8 °F 25.8 °F 30.2 °F 87% 29.61 in 10.0 mi WNW 10.4 mph - N/A   Overcast
12:53 PM 35.6 °F 27.5 °F 30.2 °F 81% 29.60 in 10.0 mi WNW 11.5 mph - N/A   Overcast
1:14 PM 35.6 °F 27.1 °F 30.2 °F 81% 29.60 in 10.0 mi NW 12.7 mph - N/A   Overcast
1:33 PM 35.6 °F 28.0 °F 30.2 °F 81% 29.60 in 10.0 mi NW 10.4 mph - N/A   Overcast
1:54 PM 33.8 °F 23.2 °F 30.2 °F 87% 29.62 in 10.0 mi WNW 17.3 mph - N/A   Overcast
2:14 PM 33.8 °F 27.0 °F 28.4 °F 81% 29.63 in 10.0 mi NW 8.1 mph - N/A   Overcast
2:33 PM 33.8 °F 26.4 °F 28.4 °F 81% 29.63 in 10.0 mi NW 9.2 mph - N/A   Overcast
2:53 PM 33.8 °F 25.8 °F 28.4 °F 81% 29.63 in 10.0 mi NW 10.4 mph - N/A   Overcast
3:14 PM 33.8 °F 23.9 °F 28.4 °F 81% 29.65 in 10.0 mi NW 15.0 mph - N/A   Overcast
3:33 PM 33.8 °F 23.5 °F 28.4 °F 81% 29.64 in 10.0 mi WNW 16.1 mph - N/A   Overcast
3:54 PM 32.0 °F 22.1 °F 26.6 °F 80% 29.66 in 10.0 mi NW 13.8 mph - N/A   Overcast
4:13 PM 32.0 °F 22.1 °F 26.6 °F 80% 29.67 in 10.0 mi WNW 13.8 mph 17.3 mph N/A   Overcast
4:33 PM 32.0 °F 21.2 °F 26.6 °F 80% 29.68 in 10.0 mi North 16.1 mph - N/A   Overcast
4:54 PM 32.0 °F 20.8 °F 26.6 °F 80% 29.68 in 10.0 mi NNW 17.3 mph 23.0 mph N/A   Overcast
5:13 PM 30.2 °F 19.8 °F 24.8 °F 80% 29.69 in 10.0 mi NW 13.8 mph 23.0 mph N/A   Overcast
5:34 PM 32.0 °F 24.2 °F 24.8 °F 75% 29.69 in 10.0 mi NNW 9.2 mph - N/A   Overcast
5:53 PM 32.0 °F 26.4 °F 24.8 °F 75% 29.68 in 10.0 mi NW 5.8 mph 9.2 mph N/A   Overcast
6:14 PM 32.0 °F 25.6 °F 24.8 °F 75% 29.69 in 10.0 mi NW 6.9 mph - N/A   Overcast
6:33 PM 32.0 °F 24.8 °F 24.8 °F 75% 29.69 in 10.0 mi NW 8.1 mph - N/A   Overcast
6:53 PM 32.0 °F 27.5 °F 24.8 °F 75% 29.72 in 10.0 mi NW 4.6 mph - N/A   Overcast
7:13 PM 32.0 °F 25.6 °F 23.0 °F 69% 29.72 in 10.0 mi NNW 6.9 mph - N/A   Overcast
7:33 PM 30.2 °F 23.4 °F 24.8 °F 80% 29.72 in 10.0 mi NNW 6.9 mph - N/A   Overcast
7:54 PM 30.2 °F 20.2 °F 24.8 °F 80% 29.70 in 10.0 mi NW 12.7 mph - N/A   Overcast
8:13 PM 30.2 °F 22.6 °F 23.0 °F 75% 29.69 in 10.0 mi NW 8.1 mph - N/A   Overcast
8:33 PM 30.2 °F 20.8 °F 23.0 °F 75% 29.73 in 10.0 mi North 11.5 mph 16.1 mph N/A   Overcast
8:53 PM 30.2 °F 17.8 °F 21.2 °F 69% 29.73 in 10.0 mi North 19.6 mph 23.0 mph N/A   Overcast
9:14 PM 30.2 °F 19.8 °F 21.2 °F 69% 29.75 in 10.0 mi NNW 13.8 mph - N/A   Overcast
9:33 PM 30.2 °F 19.3 °F 21.2 °F 69% 29.73 in 10.0 mi NNW 15.0 mph - N/A   Overcast
9:54 PM 28.4 °F 18.5 °F 21.2 °F 74% 29.72 in 10.0 mi NNW 11.5 mph 20.7 mph N/A   Overcast
10:13 PM 28.4 °F 18.0 °F 19.4 °F 69% 29.71 in 10.0 mi NW 12.7 mph 17.3 mph N/A   Overcast
10:33 PM 28.4 °F 17.0 °F 19.4 °F 69% 29.74 in 10.0 mi WNW 15.0 mph - N/A   Overcast
10:54 PM 26.6 °F 16.8 °F 19.4 °F 74% 29.77 in 10.0 mi NW 10.4 mph - N/A   Overcast
11:13 PM 26.6 °F 16.8 °F 19.4 °F 74% 29.77 in 10.0 mi NW 10.4 mph - N/A   Overcast
11:33 PM 24.8 °F 14.0 °F 17.6 °F 74% 29.76 in 10.0 mi NW 11.5 mph - N/A   Scattered Clouds